This is the latest recevied weather packets stored in our database for station/object IZ1HKE-13. If no packets are shown the sender has not sent any weather packets the latest 1 day(s).
| Time | Temp. | Humidity | Pressure | Rain* | Wind** | Luminosity | Snow |
|---|---|---|---|---|---|---|---|
| 1778005330 | 14.44° C | 90% | 1019 hPa | 0 mm | 0 m/s | 3 W/m² | - |
| 1778004642 | 14.44° C | 90% | 1018.9 hPa | 0 mm | 0 m/s | 6 W/m² | - |
| 1778003954 | 15° C | 89% | 1018.8 hPa | 0 mm | 0 m/s | 9 W/m² | - |
| 1778003267 | 15° C | 90% | 1018.8 hPa | 0 mm | 0 m/s | 12 W/m² | - |
| 1778002580 | 14.44° C | 92% | 1018.8 hPa | 0 mm | 0 m/s | 16 W/m² | - |
| 1778001892 | 15° C | 90% | 1018.8 hPa | 0 mm | 0 m/s | 16 W/m² | - |
| 1778001205 | 15° C | 88% | 1018.8 hPa | 0 mm | 0 m/s | 20 W/m² | - |
| 1778000517 | 15° C | 88% | 1018.9 hPa | 0 mm | 0 m/s | 24 W/m² | - |
| 1777999830 | 15° C | 87% | 1018.9 hPa | 0 mm | 0 m/s | 31 W/m² | - |
| 1777999142 | 15° C | 86% | 1018.9 hPa | 0 mm | 0 m/s | 39 W/m² | - |
| 1777998455 | 15° C | 86% | 1018.9 hPa | 0 mm | 0 m/s | 41 W/m² | - |
| 1777997767 | 15° C | 85% | 1019 hPa | 0 mm | 0 m/s | 32 W/m² | - |
| 1777997080 | 15° C | 86% | 1019 hPa | 0 mm | 0 m/s | 86 W/m² | - |
| 1777996392 | 15.56° C | 83% | 1019.1 hPa | 0 mm | 0 m/s | 56 W/m² | - |
| 1777995692 | 15.56° C | 82% | 1019.1 hPa | 0 mm | 0 m/s | 65 W/m² | - |
| 1777995005 | 16.11° C | 80% | 1019.2 hPa | 0 mm | 0 m/s | 68 W/m² | - |
| 1777994317 | 16.11° C | 79% | 1019.1 hPa | 0 mm | 0 m/s | 149 W/m² | - |
| 1777993630 | 16.11° C | 80% | 1019.2 hPa | 0 mm | 0 m/s | 209 W/m² | - |
| 1777992942 | 16.11° C | 77% | 1019.2 hPa | 0 mm | 0 m/s | 158 W/m² | - |
| 1777992255 | 15.56° C | 78% | 1019.3 hPa | 0 mm | 0 m/s | 134 W/m² | - |
| 1777991567 | 15.56° C | 82% | 1019.3 hPa | 0 mm | 0 m/s | 250 W/m² | - |
| 1777990880 | 15.56° C | 82% | 1019.5 hPa | 0 mm | 0.89 m/s, 202° | 133 W/m² | - |
| 1777990192 | 15.56° C | 81% | 1019.5 hPa | 0 mm | 0 m/s | 122 W/m² | - |
| 1777989505 | 15.56° C | 82% | 1019.5 hPa | 0 mm | 0 m/s | 144 W/m² | - |
| 1777988817 | 15.56° C | 80% | 1019.5 hPa | 0 mm | 0 m/s | 227 W/m² | - |
* Rain latest hour (hover to see other rain measurements)
** Current wind speed in m/s (hover to see current wind gust speed)